AAL710 EDDF-KCLT

Flight info

Callsign AAL710
Flight time N/A
Altitude 36000
Route OBOKA5G OBOKA Z28 DIBIR DCT BUDIP DCT RAVLO Y70 OTBED L60 PENIL M144 BAGSO DCT DEVOL DCT BEXET DCT DOGAL/M084F370 DCT 54N020W 53N030W 5130N04000W 50N050W DCT ELSIR/N0480F380 N402C ALLEX/N0488F400 DCT KAYCC DCT KYLOH DCT NELIE Q75 GVE DCT AIROW CHSLY6
Aircraft B772/H-SDE2E3FGHIJ5LORVWXY/LB1D1

Departure

Time N/A
Airport Frankfurt Main Airport (EDDF)

Arrival

Time 2026-05-08 05:10
Airport Charlotte Douglas International Airport (KCLT)
Time Latitude Longitude Altitude Speed Heading
2026-05-08 04:38 36.63043 -79.76174 34383 ft 402 kts 228°
2026-05-08 04:38 36.60704 -79.78124 34065 ft 403 kts 228°
2026-05-08 04:38 36.58379 -79.80062 33802 ft 401 kts 228°
2026-05-08 04:38 36.56094 -79.81951 33694 ft 386 kts 228°
2026-05-08 04:39 36.53876 -79.83796 33577 ft 381 kts 229°
2026-05-08 04:39 36.51683 -79.85626 33548 ft 378 kts 229°
2026-05-08 04:39 36.47360 -79.89221 33447 ft 368 kts 229°
2026-05-08 04:40 36.45975 -79.90355 33292 ft 352 kts 229°
2026-05-08 04:40 36.43944 -79.92033 32876 ft 350 kts 229°
2026-05-08 04:40 36.41932 -79.93708 32391 ft 344 kts 229°
2026-05-08 04:40 36.39332 -79.95871 31161 ft 337 kts 229°
2026-05-08 04:41 36.38005 -79.96981 30149 ft 342 kts 229°
2026-05-08 04:41 36.36024 -79.98641 28177 ft 354 kts 227°
2026-05-08 04:41 36.33923 -80.00395 26323 ft 369 kts 225°
2026-05-08 04:41 36.31847 -80.02077 25889 ft 349 kts 225°
2026-05-08 04:42 36.29832 -80.03730 25059 ft 346 kts 225°
2026-05-08 04:42 36.27819 -80.05397 24105 ft 349 kts 224°
2026-05-08 04:42 36.25787 -80.07080 23170 ft 351 kts 223°
2026-05-08 04:42 36.23782 -80.08731 22329 ft 347 kts 223°
2026-05-08 04:43 36.21776 -80.10376 21534 ft 342 kts 223°
2026-05-08 04:43 36.19801 -80.11996 20748 ft 338 kts 223°
2026-05-08 04:43 36.17852 -80.13598 19960 ft 334 kts 223°
2026-05-08 04:43 36.15948 -80.15163 19182 ft 331 kts 223°
2026-05-08 04:44 36.14025 -80.16744 18422 ft 329 kts 222°
2026-05-08 04:44 36.12122 -80.18308 17533 ft 328 kts 222°
2026-05-08 04:44 36.10229 -80.19865 16676 ft 327 kts 221°
2026-05-08 04:44 36.08322 -80.21431 16291 ft 328 kts 222°
2026-05-08 04:45 36.06420 -80.22992 16106 ft 327 kts 221°
2026-05-08 04:45 36.04544 -80.24530 15972 ft 329 kts 221°
2026-05-08 04:45 36.02642 -80.26085 15959 ft 323 kts 221°
2026-05-08 04:45 36.00772 -80.27611 15958 ft 319 kts 221°
2026-05-08 04:46 35.98932 -80.29114 15958 ft 315 kts 222°
2026-05-08 04:46 35.97106 -80.30607 15959 ft 313 kts 222°
2026-05-08 04:46 35.95283 -80.32096 15968 ft 313 kts 222°
2026-05-08 04:46 35.93485 -80.33566 15971 ft 314 kts 222°
2026-05-08 04:47 35.91661 -80.35057 15968 ft 314 kts 222°
2026-05-08 04:47 35.89840 -80.36547 15972 ft 314 kts 222°
2026-05-08 04:47 35.88018 -80.38039 15969 ft 314 kts 222°
2026-05-08 04:47 35.86188 -80.39537 15971 ft 315 kts 222°
2026-05-08 04:48 35.84370 -80.41012 15937 ft 310 kts 221°
2026-05-08 04:48 35.82610 -80.42416 15451 ft 293 kts 221°
2026-05-08 04:48 35.80902 -80.43768 14774 ft 290 kts 221°
2026-05-08 04:48 35.79240 -80.45079 14616 ft 281 kts 221°
2026-05-08 04:49 35.77589 -80.46392 14494 ft 289 kts 221°
2026-05-08 04:49 35.75890 -80.47742 14370 ft 293 kts 220°
2026-05-08 04:49 35.74179 -80.49096 14249 ft 291 kts 220°
2026-05-08 04:49 35.72472 -80.50444 14124 ft 290 kts 220°
2026-05-08 04:50 35.70776 -80.51784 14007 ft 289 kts 220°
2026-05-08 04:50 35.69084 -80.53120 13879 ft 288 kts 220°
2026-05-08 04:50 35.67405 -80.54415 13763 ft 289 kts 219°
2026-05-08 04:50 35.65691 -80.55713 13630 ft 289 kts 219°
2026-05-08 04:51 35.63978 -80.57009 13496 ft 289 kts 219°
2026-05-08 04:51 35.62265 -80.58306 13385 ft 289 kts 219°
2026-05-08 04:51 35.60551 -80.59604 13277 ft 289 kts 219°
2026-05-08 04:51 35.58836 -80.60904 13132 ft 289 kts 219°
2026-05-08 04:52 35.57125 -80.62199 13021 ft 288 kts 219°
2026-05-08 04:52 35.55436 -80.63478 12917 ft 287 kts 219°
2026-05-08 04:52 35.53731 -80.64767 12795 ft 287 kts 219°
2026-05-08 04:52 35.52030 -80.66037 12687 ft 286 kts 218°
2026-05-08 04:53 35.50329 -80.67303 12562 ft 285 kts 218°
2026-05-08 04:53 35.48637 -80.68563 12454 ft 284 kts 218°
2026-05-08 04:53 35.46963 -80.69811 12342 ft 284 kts 218°
2026-05-08 04:53 35.45268 -80.71073 12230 ft 283 kts 218°
2026-05-08 04:54 35.43581 -80.72329 12094 ft 283 kts 218°
2026-05-08 04:54 35.41897 -80.73582 11927 ft 284 kts 218°
2026-05-08 04:54 35.40223 -80.74828 11701 ft 285 kts 218°
2026-05-08 04:54 35.38535 -80.76081 11442 ft 279 kts 217°
2026-05-08 04:55 35.36889 -80.77301 11222 ft 273 kts 218°
2026-05-08 04:55 35.35273 -80.78501 11032 ft 269 kts 218°
2026-05-08 04:55 35.33703 -80.79663 10962 ft 257 kts 218°
2026-05-08 04:55 35.32202 -80.80774 10885 ft 246 kts 218°
2026-05-08 04:56 35.30778 -80.81828 10797 ft 236 kts 218°
2026-05-08 04:56 35.29394 -80.82851 10650 ft 227 kts 219°
2026-05-08 04:56 35.27963 -80.83631 10293 ft 234 kts 195°
2026-05-08 04:56 35.26295 -80.83580 10159 ft 247 kts 184°
2026-05-08 04:57 35.24572 -80.83432 10052 ft 247 kts 185°
2026-05-08 04:57 35.22880 -80.83288 9696 ft 240 kts 185°
2026-05-08 04:57 35.21214 -80.83150 9178 ft 239 kts 184°
2026-05-08 04:57 35.19579 -80.83014 8653 ft 239 kts 184°
2026-05-08 04:58 35.17920 -80.82876 8128 ft 239 kts 183°
2026-05-08 04:58 35.16266 -80.82738 7645 ft 237 kts 182°
2026-05-08 04:58 35.14623 -80.82600 7175 ft 234 kts 183°
2026-05-08 04:58 35.13013 -80.82464 6763 ft 230 kts 182°
2026-05-08 04:59 35.11412 -80.82332 6267 ft 231 kts 182°
2026-05-08 04:59 35.09794 -80.82199 5664 ft 235 kts 180°
2026-05-08 04:59 35.08144 -80.82064 5088 ft 238 kts 180°
2026-05-08 04:59 35.06508 -80.82227 4505 ft 236 kts 203°
2026-05-08 05:00 35.04987 -80.82915 3956 ft 238 kts 194°
2026-05-08 05:00 35.03342 -80.82820 3507 ft 237 kts 162°
2026-05-08 05:00 35.01771 -80.82287 3149 ft 234 kts 172°
2026-05-08 05:00 35.00181 -80.82088 3066 ft 226 kts 175°
2026-05-08 05:01 34.98611 -80.81940 3005 ft 227 kts 176°
2026-05-08 05:01 34.97068 -80.81798 2975 ft 220 kts 176°
2026-05-08 05:01 34.95572 -80.81661 2970 ft 212 kts 176°
2026-05-08 05:01 34.94108 -80.81525 2983 ft 210 kts 176°
2026-05-08 05:02 34.92645 -80.81471 3028 ft 219 kts 191°
2026-05-08 05:02 34.91344 -80.82299 2990 ft 206 kts 236°
2026-05-08 05:02 34.90954 -80.83820 3007 ft 183 kts 285°
2026-05-08 05:02 34.91594 -80.85021 3000 ft 170 kts 334°
2026-05-08 05:03 34.92732 -80.85335 3002 ft 168 kts 347°
2026-05-08 05:03 34.93657 -80.86185 2995 ft 178 kts 301°
2026-05-08 05:03 34.94131 -80.87586 2981 ft 178 kts 308°
2026-05-08 05:03 34.95119 -80.88344 2994 ft 172 kts 352°
2026-05-08 05:04 34.96307 -80.88482 3008 ft 174 kts 352°
2026-05-08 05:04 34.97485 -80.88730 2976 ft 171 kts 349°
2026-05-08 05:04 34.98639 -80.89025 2976 ft 167 kts 348°
2026-05-08 05:04 34.99774 -80.89350 2999 ft 168 kts 347°
2026-05-08 05:05 35.00920 -80.89710 3000 ft 170 kts 346°
2026-05-08 05:05 35.02068 -80.90096 3003 ft 172 kts 345°
2026-05-08 05:05 35.03224 -80.90501 2999 ft 173 kts 345°
2026-05-08 05:05 35.04380 -80.90916 2987 ft 172 kts 345°
2026-05-08 05:06 35.05527 -80.91335 2972 ft 172 kts 345°
2026-05-08 05:06 35.06658 -80.91751 2988 ft 171 kts 344°
2026-05-08 05:06 35.07798 -80.92168 2967 ft 170 kts 346°
2026-05-08 05:06 35.08964 -80.92427 2863 ft 172 kts 353°
2026-05-08 05:07 35.10138 -80.92556 2637 ft 163 kts 356°
2026-05-08 05:07 35.11178 -80.92646 2497 ft 137 kts 356°
2026-05-08 05:07 35.12053 -80.92722 2326 ft 120 kts 356°
2026-05-08 05:07 35.12864 -80.92791 2206 ft 117 kts 356°
2026-05-08 05:08 35.13678 -80.92861 2026 ft 117 kts 356°
2026-05-08 05:08 35.14480 -80.92930 1871 ft 115 kts 357°
2026-05-08 05:08 35.15288 -80.92998 1713 ft 118 kts 356°
2026-05-08 05:08 35.16111 -80.93069 1553 ft 120 kts 356°
2026-05-08 05:09 35.16971 -80.93140 1419 ft 127 kts 357°
2026-05-08 05:09 35.17839 -80.93202 1272 ft 121 kts 356°
2026-05-08 05:09 35.18681 -80.93291 1061 ft 122 kts 356°
2026-05-08 05:09 35.19533 -80.93365 887 ft 122 kts 355°
2026-05-08 05:10 35.20330 -80.93432 724 ft 107 kts 356°
2026-05-08 05:10 35.21180 -80.93506 724 ft 10 kts 347°
2026-05-08 05:10 35.21215 -80.93573 726 ft 10 kts 270°
2026-05-08 05:11 35.21230 -80.93633 727 ft 7 kts 325°
2026-05-08 05:11 35.21280 -80.93648 726 ft 7 kts 353°
2026-05-08 05:11 35.21332 -80.93653 726 ft 7 kts 355°
2026-05-08 05:11 35.21388 -80.93658 728 ft 11 kts 356°
2026-05-08 05:12 35.21479 -80.93666 728 ft 14 kts 356°
2026-05-08 05:12 35.21573 -80.93674 729 ft 14 kts 356°
2026-05-08 05:12 35.21668 -80.93682 730 ft 14 kts 356°
2026-05-08 05:12 35.21762 -80.93690 730 ft 14 kts 356°
2026-05-08 05:13 35.21857 -80.93698 733 ft 14 kts 356°
2026-05-08 05:13 35.21951 -80.93706 731 ft 14 kts 356°
2026-05-08 05:13 35.22046 -80.93714 732 ft 14 kts 356°
2026-05-08 05:13 35.22132 -80.93721 734 ft 10 kts 356°
2026-05-08 05:14 35.22188 -80.93744 735 ft 8 kts 298°
2026-05-08 05:14 35.22169 -80.93803 735 ft 9 kts 197°
2026-05-08 05:14 35.22120 -80.93803 733 ft 2 kts 178°
2026-05-08 05:14 35.22105 -80.93805 736 ft 2 kts 194°
2026-05-08 05:15 35.22086 -80.93825 735 ft 4 kts 234°
2026-05-08 05:15 35.22079 -80.93857 734 ft 4 kts 261°
2026-05-08 05:15 35.22077 -80.93872 735 ft 0 kts 260°
2026-05-08 05:15 35.22077 -80.93874 734 ft 0 kts 259°